GFSNIL_sfc_temp_018.txt.gz
Temp
65 65 64 63 61 59 60 60 59 59 60 58 57 54 50 47 44 43 43 44 43 43
63 62 60 59 59 59 59 59 57 57 56 56 56 54 53 51 51 49 47 46 47 46
61 61 59 58 56 56 57 57 56 55 56 54 53 51 49 49 50 48 48 50 50 50
59 58 57 56 56 56 56 56 55 55 53 50 47 46 47 48 48 48 48 50 50 50
57 56 56 54 54 55 54 55 54 53 49 48 47 47 47 46 49 48 47 48 49 49
55 54 54 54 53 54 53 51 51 47 45 46 46 46 47 48 48 47 48 48 47 47
53 52 46 47 50 50 50 49 49 49 48 47 47 47 47 47 46 46 46 46 45 45
49 48 49 51 52 52 52 51 50 49 48 47 46 47 42 43 43 44 44 44 44 44
52 52 52 51 50 50 50 50 49 47 47 45 47 36 36 37 41 42 43 42 43 44
51 50 49 50 49 48 47 47 46 46 45 44 44 35 35 34 39 40 41 41 41 41
49 48 48 48 47 46 46 45 45 44 43 43 43 36 34 33 38 39 39 40 40 40
48 47 47 46 45 45 45 44 44 43 42 41 41 36 33 33 35 36 36 36 36 36
48 47 46 45 44 45 45 43 42 40 40 37 37 35 33 33 34 30 31 33 35 34
48 47 46 45 45 45 43 40 36 33 34 36 35 34 32 32 30 30 30 31 33 36

GFSNIL_sfc_temp_021.txt.gz
Temp
68 67 65 64 62 60 60 61 62 61 60 57 54 52 51 51 49 50 49 48 48 48
66 64 63 61 60 60 60 60 60 59 55 54 52 52 51 50 50 49 49 50 49 49
63 63 61 60 58 58 58 59 55 54 53 52 52 50 50 49 50 48 46 46 45 45
62 61 60 59 58 58 58 57 56 55 52 51 49 48 47 47 47 47 48 49 47 47
61 60 59 58 56 54 54 54 53 50 45 45 47 49 47 46 47 45 46 47 47 47
60 57 54 54 52 53 54 54 54 51 48 48 48 49 50 50 49 48 47 47 47 47
55 52 53 53 53 53 54 53 53 53 52 51 51 50 50 49 46 46 47 47 47 46
55 54 53 53 52 53 53 53 53 51 51 50 50 50 45 44 42 43 44 45 46 46
54 52 51 51 51 52 51 51 51 49 49 48 50 36 36 37 40 40 41 42 44 45
51 50 50 51 51 50 49 49 48 48 48 46 47 36 36 35 39 38 39 41 42 43
51 49 50 51 50 49 49 47 47 46 46 45 45 36 35 34 37 38 38 40 40 40
50 50 50 49 48 48 47 46 46 46 43 41 41 37 34 34 34 34 35 36 37 37
51 50 49 49 47 48 47 46 45 42 40 37 36 37 35 34 33 30 32 34 35 35
51 48 50 48 48 47 46 44 40 36 38 38 36 36 36 34 32 32 31 31 33 35

GFSNIL_sfc_temp_027.txt.gz
Temp
53 51 50 50 48 47 46 46 47 47 46 45 45 44 45 43 44 43 41 39 41 43
52 51 49 48 47 45 45 50 46 45 44 44 44 44 46 44 41 40 39 39 40 41
51 50 48 46 45 45 45 46 45 44 44 43 43 43 43 42 41 40 38 40 39 41
48 47 46 45 45 45 45 45 45 45 44 43 42 41 40 40 41 41 39 38 38 38
48 46 45 45 45 45 45 45 45 44 43 43 42 41 40 39 39 37 36 36 35 36
48 45 45 45 45 45 44 44 43 43 41 41 41 41 40 39 37 36 35 35 34 35
47 45 44 44 44 44 44 43 42 42 42 41 41 40 39 38 35 33 34 34 34 34
48 45 45 45 44 43 44 43 42 41 40 40 40 39 34 33 31 31 31 32 34 34
46 48 45 43 43 43 41 41 40 39 39 37 41 36 36 33 29 30 30 29 31 32
46 43 44 44 43 43 39 38 38 38 38 36 33 36 36 35 30 29 28 27 28 30
44 42 42 44 43 40 39 37 36 36 36 33 37 37 37 35 29 28 29 28 28 28
44 45 43 39 38 38 39 36 35 35 32 31 31 36 35 33 27 27 27 29 30 30
42 40 38 37 38 38 37 36 35 32 31 33 29 34 35 31 25 21 26 27 29 30
41 39 40 37 36 36 35 32 27 27 28 30 31 29 34 32 26 25 25 25 25 27

GFSNIL_sfc_temp_030.txt.gz
Temp
51 49 48 47 45 43 43 43 44 44 44 43 43 42 41 40 41 41 39 38 38 38
49 48 46 45 44 43 43 47 43 43 43 42 42 42 41 39 39 39 38 38 38 38
48 47 45 43 43 44 44 44 43 42 42 42 42 41 40 38 38 37 37 39 37 36
45 45 44 44 43 43 43 44 43 43 42 41 40 40 38 38 38 37 35 35 34 34
46 45 44 43 43 43 43 44 43 42 41 41 40 39 38 36 36 34 34 34 33 34
46 43 43 42 42 43 43 43 43 42 40 40 40 38 36 36 34 33 33 33 33 32
45 43 42 41 42 43 43 42 43 42 42 40 38 37 36 35 32 31 32 32 31 31
44 44 44 42 42 42 43 43 41 41 40 38 37 38 32 32 31 30 30 31 31 31
45 45 42 41 42 41 40 40 40 40 38 36 39 36 36 34 29 30 29 28 29 29
43 41 41 41 41 41 39 38 38 37 36 34 32 37 37 36 31 29 27 27 27 29
41 40 40 40 39 37 37 35 35 35 33 32 35 36 36 35 29 27 27 27 27 27
40 39 38 37 37 36 36 35 35 34 31 29 29 34 33 30 25 26 25 28 28 28
39 38 36 36 37 36 36 34 33 31 30 32 27 33 33 32 23 18 24 25 27 29
38 36 36 36 34 34 33 30 28 26 27 28 29 27 32 31 23 23 23 23 24 26

GFSNIL_sfc_temp_033.txt.gz
Temp
50 48 47 46 44 42 42 42 43 43 43 42 42 41 40 39 39 38 37 36 36 36
48 46 45 44 42 42 42 44 42 42 41 41 41 41 39 38 37 37 36 36 35 35
47 46 44 42 42 42 42 42 42 41 41 40 40 39 38 37 37 35 35 36 34 33
45 44 43 42 42 42 42 42 42 43 42 41 41 40 38 37 36 35 33 33 32 32
44 43 42 41 42 42 41 43 42 41 41 41 41 40 37 36 35 34 32 32 31 32
43 43 42 42 41 41 41 40 40 42 39 40 40 39 37 35 34 32 32 31 30 30
42 42 41 41 40 40 40 39 39 40 39 40 40 38 36 34 32 31 31 31 30 30
42 42 41 40 40 40 39 39 39 39 39 39 39 37 32 32 31 30 29 30 31 30
42 41 40 39 39 38 37 39 39 35 35 35 38 37 37 35 30 30 30 28 29 29
40 39 39 39 38 37 36 39 34 34 36 34 33 37 37 35 31 29 28 26 27 28
39 38 37 37 35 33 33 35 35 33 33 31 33 35 33 32 26 25 26 26 26 26
38 37 36 34 35 36 35 35 32 32 31 29 28 34 33 30 24 25 24 27 27 27
37 35 34 33 33 36 35 31 31 31 29 31 26 32 32 30 21 16 23 24 26 27
35 33 33 35 37 35 31 30 26 25 26 27 28 26 31 30 21 21 23 23 23 26

GFSNIL_sfc_temp_036.txt.gz
Temp
49 47 47 46 44 43 42 42 42 42 42 41 41 40 40 38 38 37 36 35 35 35
47 46 45 44 42 41 41 43 42 41 40 40 40 40 39 38 39 38 37 36 36 34
45 44 43 42 42 41 41 41 40 40 39 39 41 40 40 38 37 36 36 36 34 33
43 43 42 41 41 41 41 40 40 40 40 42 39 40 39 38 38 36 35 34 33 33
43 42 41 41 41 40 39 40 40 39 39 37 39 39 38 37 37 34 33 32 32 31
41 40 40 39 39 39 39 39 38 38 37 37 39 38 38 37 34 33 33 31 30 30
40 39 39 39 39 39 39 37 37 38 39 39 38 37 37 35 33 32 32 31 31 30
40 39 39 38 38 38 38 38 39 40 39 35 36 37 34 34 32 31 30 30 31 31
39 39 38 37 37 36 36 36 39 37 36 34 38 37 37 35 30 30 29 30 30 29
39 37 37 36 36 34 32 34 35 34 34 32 32 36 35 33 29 27 26 26 26 27
37 36 35 34 34 32 35 36 35 32 31 30 32 34 34 32 27 25 26 26 26 26
36 34 34 32 32 36 35 34 30 30 29 28 28 33 33 30 25 25 25 27 27 27
35 33 32 31 35 36 35 32 31 31 28 30 26 31 32 30 22 16 23 25 27 27
33 32 31 34 36 35 32 30 27 25 26 27 28 26 30 31 22 22 24 23 24 25

GFSNIL_sfc_temp_039.txt.gz
Temp
59 61 60 58 57 57 56 56 55 54 53 52 51 51 50 50 48 49 47 47 47 46
58 56 55 55 55 54 53 53 53 53 52 51 51 50 50 49 48 48 47 46 46 45
55 54 54 53 53 52 53 53 52 52 51 51 50 50 50 49 48 47 47 46 44 44
54 54 53 53 53 52 52 52 51 51 50 49 48 47 47 47 46 45 45 44 43 43
53 53 52 52 52 51 50 51 50 49 48 46 44 43 42 40 45 43 42 41 42 41
52 51 51 50 50 50 50 49 48 47 46 42 43 42 44 44 42 42 41 41 40 40
50 49 49 49 49 48 48 46 46 46 45 44 42 44 44 43 42 41 41 40 39 39
49 48 48 48 47 46 45 45 45 44 42 43 43 44 42 42 40 39 39 39 38 37
47 47 47 46 45 44 43 43 42 40 42 40 42 37 35 37 39 37 36 35 36 36
46 46 45 44 44 42 42 42 39 38 37 38 39 35 35 33 37 35 35 34 34 33
45 43 43 42 42 41 41 37 37 36 38 39 38 34 33 32 35 34 34 33 33 33
43 42 41 41 40 39 38 37 37 38 37 37 37 33 33 33 33 32 32 33 33 32
42 41 40 40 39 39 37 37 36 36 37 33 34 31 32 33 33 29 30 32 32 30
41 40 40 39 40 39 37 36 33 33 34 34 33 33 31 31 31 30 30 30 30 31

GFSNIL_sfc_temp_042.txt.gz
Temp
67 70 68 66 64 64 63 62 61 60 60 60 60 59 57 56 55 54 53 51 51 49
66 64 64 63 62 63 61 61 60 60 59 59 58 58 56 54 53 53 51 49 49 50
63 64 63 63 60 59 60 60 59 58 58 57 57 57 55 54 54 51 50 51 50 51
64 63 63 62 60 59 59 58 57 57 56 55 55 54 51 51 52 47 47 49 48 48
63 62 61 60 58 58 57 57 56 55 54 54 53 49 47 45 45 46 47 48 47 47
61 60 58 57 57 56 55 55 54 54 53 52 50 49 46 45 48 49 48 47 46 45
59 58 57 56 55 54 54 52 52 52 52 46 47 48 48 49 48 47 47 46 46 45
56 56 55 54 53 53 52 51 51 49 47 46 49 49 47 46 45 45 45 45 44 44
55 54 53 52 51 51 50 50 50 46 46 44 46 36 35 37 45 44 43 42 42 43
52 52 52 51 50 49 48 47 44 44 42 41 42 36 35 34 43 42 42 41 41 40
51 51 51 49 48 48 47 43 44 42 42 43 42 35 34 33 41 41 40 40 39 39
50 49 48 47 47 46 42 42 40 42 42 42 43 34 33 34 39 39 38 39 39 37
50 48 47 47 46 44 42 41 42 39 42 37 41 33 32 34 37 33 36 38 38 34
49 48 47 46 46 43 42 42 38 36 40 41 40 39 32 32 34 34 34 35 36 36

GFSNIL_sfc_temp_045.txt.gz
Temp
70 71 70 68 66 65 65 65 65 63 62 61 61 60 59 59 57 56 53 51 52 52
68 67 65 65 65 65 64 64 63 62 60 60 59 58 58 58 56 54 53 51 51 50
65 65 66 64 63 62 62 62 61 59 59 58 58 58 57 56 56 52 52 52 50 49
63 65 64 64 63 62 61 60 59 58 58 57 56 57 55 53 51 49 50 50 49 48
64 65 63 63 62 61 59 59 58 57 56 56 56 56 51 46 49 48 48 48 47 47
64 63 62 61 60 59 58 57 56 56 54 54 54 51 49 47 49 47 47 47 46 46
62 62 60 60 58 57 56 55 55 54 53 52 49 50 49 48 47 46 47 47 47 47
61 60 59 58 56 55 55 54 54 53 52 51 49 49 46 47 45 45 46 47 47 46
59 58 57 55 54 54 53 53 53 51 49 45 47 36 36 38 44 45 45 44 44 45
56 55 55 55 54 52 51 52 50 47 45 43 43 36 35 35 42 43 44 43 42 42
55 54 54 53 52 51 51 49 46 45 43 42 42 36 35 34 40 43 43 42 42 41
54 53 52 51 50 50 49 45 42 43 41 41 41 35 35 34 40 41 40 41 41 40
54 52 51 50 50 49 48 44 43 41 41 41 40 35 35 34 37 36 37 40 40 34
53 52 51 50 50 49 46 42 39 38 40 40 39 39 34 33 35 35 35 35 37 38

GFSNIL_sfc_temp_048.txt.gz
Temp
65 62 62 61 60 58 57 56 57 55 54 54 53 51 50 48 47 48 45 44 44 44
63 61 59 60 60 57 57 59 54 53 52 52 51 51 49 47 47 47 44 43 43 42
62 61 60 60 58 57 55 55 53 52 52 51 51 50 49 47 47 44 43 44 44 42
59 60 60 59 57 56 55 54 53 52 51 50 50 49 48 46 45 43 43 43 42 43
57 58 59 57 57 55 53 53 52 52 51 51 50 48 46 43 43 43 41 43 42 41
58 59 58 56 55 55 53 52 51 51 49 49 47 46 45 44 43 42 42 41 40 41
59 58 56 55 55 53 52 51 50 49 49 48 46 47 46 45 42 41 42 41 42 41
57 57 55 54 52 52 51 50 50 49 48 46 46 44 40 41 40 39 39 41 42 40
57 56 54 51 51 50 49 49 48 47 45 42 46 36 37 36 36 38 38 36 37 38
55 53 51 52 51 49 47 47 45 42 42 42 41 37 37 36 35 35 35 35 35 37
53 51 51 50 49 47 46 45 42 41 41 40 42 37 36 35 32 33 35 35 35 33
52 51 50 48 47 47 45 43 40 41 40 39 39 36 36 34 32 32 33 35 35 35
51 49 48 47 46 45 44 43 41 39 39 39 35 34 35 35 29 29 30 32 33 32
50 49 48 47 46 44 42 39 36 34 34 35 35 34 35 35 30 28 29 29 29 29

GFSNIL_sfc_temp_051.txt.gz
Temp
58 56 54 55 55 54 53 53 50 50 49 48 48 47 46 44 43 43 40 41 40 41
55 55 55 55 54 53 53 55 51 48 48 47 47 47 46 43 42 41 40 39 40 39
55 56 55 55 55 55 52 52 51 48 47 47 47 46 45 42 42 40 39 41 39 38
56 57 57 57 54 53 52 51 49 48 48 48 46 45 42 41 41 40 39 38 39 39
56 57 56 55 54 52 51 50 49 48 48 46 46 44 43 40 41 39 39 40 39 38
56 56 54 55 52 51 49 49 47 49 47 46 45 43 43 41 40 40 40 39 38 38
54 54 52 51 51 48 49 47 48 48 47 44 43 43 42 42 39 39 39 39 39 37
52 52 52 50 49 49 49 48 48 47 44 42 43 42 38 38 37 36 36 36 38 36
52 52 49 48 48 48 46 46 47 44 42 40 44 38 38 37 34 35 34 32 33 34
51 49 48 49 48 47 45 45 43 41 40 39 39 38 38 37 33 32 31 30 31 34
48 48 48 48 46 45 44 43 39 38 39 38 39 38 37 36 31 31 31 31 31 30
48 47 46 45 44 44 42 40 39 39 38 36 35 37 37 35 31 30 30 32 32 32
46 45 44 44 42 42 42 41 38 37 35 37 34 36 36 34 28 28 28 29 30 32
46 44 44 43 43 42 39 36 33 33 33 33 33 32 36 35 29 28 28 28 26 27

GFSNIL_sfc_temp_054.txt.gz
Temp
55 53 53 55 54 53 52 50 51 49 50 49 49 47 43 42 40 40 38 38 38 38
55 54 55 53 54 52 51 52 50 50 49 47 45 44 43 41 40 39 38 37 38 37
56 54 54 54 51 50 49 51 50 49 47 46 45 44 43 40 40 39 38 39 38 37
55 55 54 52 51 51 50 50 49 49 47 46 45 45 42 40 41 40 38 38 38 38
55 54 53 51 51 50 49 49 48 47 46 46 45 44 42 40 40 38 37 38 38 38
54 53 51 51 49 48 48 46 46 46 46 45 44 42 42 41 40 39 38 38 36 37
53 53 50 49 48 47 48 45 46 47 46 44 42 42 41 40 38 37 38 37 36 36
51 48 49 48 45 48 46 47 47 46 43 42 42 42 39 39 36 35 35 35 36 36
50 49 47 46 46 45 47 46 45 43 41 38 42 40 39 37 33 34 33 31 32 32
49 47 47 48 47 46 44 44 42 40 40 39 38 38 38 37 32 32 31 30 30 32
46 45 46 45 45 43 43 41 39 37 38 36 38 38 38 37 31 30 30 30 31 30
46 44 44 42 42 42 39 38 37 37 36 35 34 38 37 35 29 29 29 32 32 31
44 44 43 42 40 39 38 38 37 35 34 36 33 36 37 35 27 29 29 30 30 33
45 43 42 40 39 38 36 34 33 32 32 32 33 32 36 36 31 30 29 28 28 28

GFSNIL_sfc_temp_057.txt.gz
Temp
54 53 51 51 51 50 51 49 49 47 47 49 49 48 45 42 40 39 37 37 37 37
52 52 51 53 52 50 48 48 46 49 48 48 48 46 44 40 39 38 37 36 36 36
53 54 54 51 48 48 48 47 47 47 46 47 46 44 42 40 39 39 37 38 36 36
51 52 51 50 49 47 47 48 47 45 45 46 44 42 41 40 39 39 37 37 37 37
52 51 49 47 47 48 47 46 47 46 45 44 44 42 40 39 39 38 36 37 36 36
50 49 48 48 48 48 47 46 45 44 44 44 42 40 40 39 38 38 37 37 35 35
49 49 49 47 45 45 46 45 45 45 44 42 41 40 40 40 37 36 36 35 34 34
50 48 46 46 45 47 46 47 46 45 43 41 40 40 38 37 35 33 33 33 33 33
48 48 47 46 45 46 46 46 44 42 40 38 40 40 39 37 33 33 32 31 31 31
47 46 46 46 46 44 43 43 42 41 39 37 37 39 39 38 33 31 31 30 30 31
46 45 45 44 42 42 42 40 38 37 37 35 37 38 39 37 32 30 30 30 30 31
45 44 43 42 42 40 37 36 36 36 35 33 33 37 37 36 30 29 29 30 30 31
43 43 42 40 38 37 36 36 35 34 33 35 32 36 37 36 29 28 29 29 30 33
43 42 40 38 37 36 34 32 31 31 31 32 32 32 37 37 30 30 31 30 28 29

GFSNIL_sfc_temp_060.txt.gz
Temp
56 54 52 52 52 47 47 47 46 47 46 47 47 47 46 44 43 41 37 37 37 37
54 52 50 48 50 49 48 47 46 45 46 45 47 46 44 42 40 38 37 37 36 36
52 51 50 50 48 47 47 47 46 45 46 45 45 45 44 39 39 38 36 37 36 35
49 49 49 49 48 48 46 46 45 46 45 45 45 42 40 39 38 37 37 37 36 36
49 49 48 46 47 46 46 46 47 46 46 45 42 40 39 38 39 37 36 37 36 35
49 48 47 46 47 47 46 46 46 46 44 43 41 40 39 39 39 38 38 36 35 35
47 48 46 48 46 46 46 45 44 45 45 42 41 41 40 39 37 36 36 35 34 34
49 48 46 46 45 45 44 45 46 45 43 42 42 41 38 37 35 34 33 33 33 33
47 46 45 45 44 44 45 45 44 42 42 40 41 40 39 37 34 34 33 32 32 32
46 45 45 45 44 43 42 42 41 41 40 37 36 39 40 39 33 33 32 31 31 32
45 44 44 43 43 42 41 40 38 37 36 34 36 38 39 38 34 32 31 31 30 29
44 43 43 42 41 39 37 36 35 34 34 33 33 37 37 36 32 31 31 32 31 30
43 43 42 40 38 36 34 34 33 33 33 34 32 36 37 36 31 30 31 30 30 33
42 40 39 36 35 34 33 31 31 31 31 32 32 33 36 37 32 31 31 29 32 30

GFSNIL_sfc_temp_063.txt.gz
Temp
60 60 60 57 59 59 58 56 56 56 55 54 53 49 48 51 48 50 51 50 50 52
61 60 57 57 61 60 58 55 54 54 53 51 50 48 47 47 46 51 51 50 50 50
61 60 58 57 58 57 55 55 53 51 47 47 48 47 49 47 51 50 50 50 49 49
62 59 57 55 55 54 54 51 48 48 48 46 46 47 46 50 51 49 49 49 48 48
57 54 53 51 52 51 50 48 48 47 48 48 47 45 48 49 50 48 48 48 47 47
52 51 51 50 50 51 48 47 46 46 46 45 47 48 49 50 49 49 48 48 47 47
52 51 49 48 47 46 48 46 44 45 45 45 48 51 50 49 49 48 48 47 46 46
51 51 48 46 46 49 46 45 47 46 48 49 49 50 50 49 48 47 47 46 46 45
48 48 45 46 44 44 47 45 46 44 43 43 48 42 40 43 48 47 46 45 46 46
47 45 44 44 46 45 45 44 43 44 48 47 48 40 39 39 47 46 46 46 45 45
45 45 45 45 45 44 43 46 48 47 47 46 46 39 38 38 46 46 46 45 45 44
45 46 46 44 44 46 47 46 46 45 45 45 46 38 37 38 44 44 44 45 44 43
44 44 46 46 46 46 46 45 45 44 44 42 43 40 37 39 42 40 41 43 43 37
48 46 45 45 45 44 43 42 41 39 42 42 41 42 38 37 39 39 39 40 41 41

GFSNIL_sfc_temp_066.txt.gz
Temp
68 67 66 67 66 61 59 64 67 66 66 65 64 61 52 58 58 50 50 56 57 59
67 63 64 66 64 58 60 65 65 64 64 62 58 50 51 50 50 49 53 57 57 57
67 68 66 64 62 58 61 66 63 62 59 48 48 49 51 48 48 50 54 57 56 56
66 65 64 62 60 58 59 62 61 57 49 48 46 47 47 46 48 51 56 56 55 54
63 61 57 55 54 56 53 52 48 48 46 46 46 45 44 46 54 55 55 55 55 53
54 53 52 51 50 49 48 46 47 48 46 44 44 45 49 53 56 56 55 55 54 54
52 51 50 49 49 47 48 47 46 46 46 45 47 50 55 56 55 55 55 54 54 54
52 51 49 48 47 48 46 47 47 46 45 48 51 53 52 55 55 55 54 54 54 53
50 51 51 47 46 48 48 47 46 44 45 47 50 46 42 44 53 54 53 52 53 54
53 50 48 48 46 46 45 46 45 48 48 50 55 43 41 39 50 52 52 53 53 53
51 49 48 46 45 46 49 49 53 54 53 53 54 41 39 38 49 51 52 52 52 51
48 46 46 47 47 48 53 54 53 53 52 52 52 41 39 40 48 49 49 51 51 51
52 50 48 52 53 53 54 53 53 51 51 46 48 42 39 40 44 43 44 47 48 43
52 52 52 52 52 53 52 49 47 45 46 47 45 45 38 37 40 40 39 40 42 45

GFSNIL_sfc_temp_069.txt.gz
Temp
77 77 74 72 71 67 66 66 66 62 60 61 62 66 64 59 54 53 54 54 53 56
76 75 72 70 69 68 66 64 62 61 59 58 60 60 55 49 46 47 49 48 50 56
75 72 70 66 66 66 65 62 59 57 55 55 51 50 48 47 47 47 47 49 51 57
74 70 69 65 65 63 61 57 54 52 51 50 47 46 45 45 46 45 46 51 55 55
69 66 63 61 58 55 50 51 49 48 46 46 45 45 44 43 46 46 48 52 55 55
57 55 53 51 50 50 49 49 48 47 46 45 44 44 45 46 49 52 53 55 55 56
52 51 50 49 49 49 50 48 47 48 47 47 46 47 48 50 51 53 55 54 56 56
51 50 50 48 48 48 48 48 48 47 46 46 47 49 52 54 53 54 54 56 57 56
50 50 49 49 48 49 48 48 47 45 46 46 49 46 43 46 53 54 53 53 55 56
52 50 49 49 48 47 45 45 47 50 50 52 53 44 43 40 51 51 52 52 53 54
51 50 50 49 47 45 49 51 53 53 56 56 56 43 41 39 49 50 51 52 52 52
54 50 49 46 47 50 50 54 56 56 54 53 54 39 38 41 47 47 47 49 50 50
52 53 53 52 54 56 56 55 56 53 53 44 50 37 38 40 43 40 41 44 45 41
54 57 56 55 55 54 54 52 49 47 48 48 46 45 37 36 39 37 35 36 38 41

GFSNIL_sfc_temp_072.txt.gz
Temp
72 71 70 69 67 66 63 61 60 60 60 60 59 57 56 51 51 50 49 48 49 48
72 71 69 67 65 63 64 63 61 60 59 56 54 52 50 48 46 46 46 45 46 47
72 71 70 66 62 62 62 61 58 56 55 50 49 48 47 46 46 45 45 46 46 46
70 65 63 62 62 60 59 57 55 51 49 47 46 46 45 44 44 44 44 45 45 47
67 63 60 59 56 55 54 52 50 49 47 47 47 46 44 43 44 44 43 45 46 48
58 55 52 51 51 51 50 48 48 48 47 45 44 44 45 45 45 45 46 48 47 49
52 51 50 49 49 49 49 47 46 47 46 46 46 46 46 47 46 47 49 49 50 49
50 49 49 49 49 48 47 48 47 46 46 46 46 47 47 48 48 47 48 48 50 49
48 48 47 47 47 47 47 46 46 45 45 44 48 44 43 44 45 47 46 44 46 47
49 48 47 48 47 46 45 45 45 45 46 47 47 44 42 40 44 43 43 42 43 46
49 48 47 47 45 45 45 46 47 48 48 48 45 39 39 38 42 41 42 42 42 41
49 48 47 45 46 47 47 49 49 50 49 45 39 38 38 41 38 39 37 41 40 39
51 49 47 48 49 49 49 51 50 48 46 43 36 37 36 38 33 31 31 33 36 36
52 52 52 51 50 49 47 45 40 39 39 42 39 35 35 35 30 28 29 29 30 31

GFSNIL_sfc_temp_075.txt.gz
Temp
67 67 64 62 63 62 61 61 58 57 56 57 57 57 55 51 49 48 47 47 46 47
64 66 66 62 62 61 59 59 58 57 56 55 54 52 50 49 47 47 46 45 45 45
68 65 64 64 60 59 60 59 57 56 54 52 50 49 48 46 46 46 45 45 45 45
66 66 64 60 59 58 57 56 55 52 52 49 47 47 46 46 46 45 44 45 45 45
64 60 59 59 59 57 55 54 52 51 49 47 47 47 47 45 45 45 44 45 45 45
57 55 55 54 53 53 51 51 50 48 47 47 45 45 45 46 45 45 45 46 45 46
53 52 50 50 51 50 49 48 47 47 46 45 46 46 47 47 46 45 46 46 46 45
50 49 49 48 48 47 47 47 47 46 45 46 46 47 46 47 46 45 45 45 48 47
49 47 47 47 47 47 46 46 45 45 44 44 47 43 43 44 42 43 42 40 41 41
48 47 47 47 46 45 44 44 44 45 45 44 45 41 41 40 41 40 39 37 37 40
47 46 46 46 45 44 45 45 44 43 43 43 41 39 39 38 37 36 36 36 35 34
47 46 45 44 44 43 43 43 43 46 41 37 36 38 38 37 33 34 32 34 33 33
48 47 45 45 43 44 46 47 45 41 38 36 34 37 37 34 29 28 27 29 31 33
47 46 46 45 45 44 41 39 34 34 34 33 33 33 36 34 27 26 27 27 27 27

GFSNIL_sfc_temp_081.txt.gz
Temp
60 60 60 60 60 60 60 60 60 60 62 61 59 57 56 54 52 50 50 49 49 50
60 61 61 60 61 59 60 60 59 61 61 58 56 56 54 53 51 50 50 50 50 49
62 62 62 62 60 58 58 58 57 56 55 55 55 53 53 51 50 49 48 49 48 47
63 63 62 61 60 57 58 58 57 56 55 54 53 52 51 50 49 48 46 46 47 46
63 62 61 61 58 59 59 58 58 56 55 53 52 51 49 48 47 47 45 46 46 46
60 61 59 60 59 59 58 58 58 57 54 52 50 49 48 48 47 47 47 46 46 45
60 59 60 59 59 58 59 58 56 55 53 51 49 49 48 47 46 46 46 46 46 45
54 53 53 53 53 52 53 52 52 50 48 47 47 47 47 47 46 46 45 45 45 43
50 50 50 50 49 49 48 48 48 46 45 45 47 43 42 44 45 45 43 40 39 38
49 49 48 48 47 46 45 45 44 44 45 45 44 40 41 40 41 40 38 37 37 37
49 47 47 46 45 44 45 44 44 45 45 44 43 39 38 37 38 35 34 34 32 31
47 46 45 44 44 44 44 44 44 43 41 40 38 37 37 37 35 34 32 31 31 30
47 45 44 44 44 45 45 43 41 38 38 37 36 36 36 35 32 28 29 30 31 32
47 46 45 45 45 43 40 37 34 33 33 34 34 35 36 35 31 29 29 29 27 27

GFSNIL_sfc_temp_084.txt.gz
Temp
56 56 57 58 59 56 57 56 56 57 59 59 59 59 57 57 56 55 53 53 51 51
56 57 57 57 55 55 55 56 56 56 58 58 57 56 56 56 54 53 54 52 51 52
56 57 57 56 56 57 56 56 57 57 58 56 56 56 55 54 53 52 51 52 50 50
58 58 58 58 58 58 57 58 58 58 57 56 56 55 54 54 52 51 50 49 49 49
59 59 58 59 60 60 58 58 59 58 58 57 56 54 53 51 51 50 48 48 48 47
58 58 59 60 60 59 58 59 58 58 58 58 55 52 51 50 49 49 49 48 47 47
57 58 58 58 57 56 57 58 57 58 58 56 53 52 50 49 48 47 47 47 47 46
56 55 55 54 54 55 57 57 58 54 52 51 50 49 49 48 47 47 45 45 44 42
52 52 52 51 51 50 50 50 49 48 47 46 47 43 42 45 46 45 43 38 37 38
50 49 49 49 49 48 47 46 45 45 46 45 44 40 41 41 43 40 38 36 36 37
49 48 47 47 46 45 45 45 44 44 45 44 41 38 38 37 38 35 35 35 34 34
47 46 45 44 44 44 44 44 42 42 41 39 36 36 36 36 35 33 32 33 33 33
47 46 44 44 44 44 42 40 38 36 36 36 35 36 36 35 33 31 31 32 32 32
46 45 44 43 43 40 37 35 33 32 32 33 34 34 35 35 32 31 30 30 29 29

GFSNIL_sfc_temp_090.txt.gz
Temp
70 72 72 71 72 71 71 72 71 71 71 71 71 71 71 71 71 71 69 68 69 69
69 71 71 72 72 73 72 73 73 71 71 71 71 71 71 71 70 70 68 67 67 66
69 70 71 71 70 71 72 72 72 71 71 71 71 71 71 71 70 67 66 63 62 61
70 70 70 70 71 71 71 72 71 71 71 71 71 72 71 70 68 63 60 60 58 58
70 70 69 69 70 71 70 71 71 72 71 71 71 71 68 62 57 57 58 60 60 57
68 69 69 69 69 70 69 70 71 70 70 70 70 70 66 60 58 58 60 61 59 56
68 69 69 69 69 68 68 68 68 69 70 70 70 70 69 65 59 58 58 58 56 54
69 70 70 69 69 68 67 68 70 70 70 70 69 68 65 59 57 56 54 51 48 46
70 70 69 69 68 69 69 70 70 69 68 65 58 43 44 48 53 49 44 39 38 37
70 69 69 69 69 68 67 66 60 51 49 46 44 40 40 41 43 40 38 37 36 35
67 66 64 62 58 52 50 48 47 44 42 39 38 37 37 37 36 35 34 34 34 33
60 54 50 48 47 46 43 41 40 39 38 36 35 36 36 36 35 33 32 32 32 32
49 48 46 45 42 41 40 37 37 35 35 35 34 35 35 35 34 31 30 31 31 31
47 45 43 41 40 38 35 34 32 31 31 32 33 34 35 35 33 32 31 30 30 31

GFSNIL_sfc_temp_096.txt.gz
Temp
63 63 62 62 62 61 61 62 64 64 65 63 64 64 65 62 62 61 61 60 60 60
64 64 63 63 63 62 62 63 62 63 64 62 65 66 63 62 61 61 61 60 60 60
64 63 64 63 63 63 63 64 63 62 63 63 63 64 64 63 62 62 61 62 60 60
64 63 64 64 65 65 64 64 64 64 64 64 65 65 64 63 63 62 62 61 60 61
64 64 64 64 65 66 65 66 66 67 66 66 66 66 63 62 63 62 61 62 61 62
65 64 64 65 66 66 67 67 67 67 66 66 65 65 64 64 63 63 63 63 61 62
65 65 65 66 66 66 67 66 66 67 67 66 66 67 66 66 64 64 63 59 51 45
67 67 67 66 67 67 67 67 67 66 66 66 66 64 58 63 61 57 45 40 39 38
68 68 67 67 66 66 66 66 66 65 63 56 48 39 41 47 45 43 39 36 35 35
69 68 67 67 67 65 64 62 56 47 44 40 39 38 38 38 38 36 35 34 34 33
69 68 67 66 64 53 48 44 41 39 38 36 36 36 36 35 34 33 32 32 32 32
69 67 64 53 46 43 40 38 36 36 35 34 34 35 35 34 32 31 30 32 31 31
59 50 45 42 39 38 36 34 34 33 34 34 33 35 35 34 33 30 29 30 31 31
46 42 39 37 36 34 33 33 32 32 32 33 34 34 35 35 33 31 31 30 29 30

GFSNIL_sfc_temp_099.txt.gz
Temp
60 59 59 59 59 59 58 59 61 61 62 62 62 61 60 59 60 60 59 58 57 57
61 59 59 60 61 61 61 62 61 62 62 60 62 61 60 59 60 60 58 58 57 57
62 61 60 60 60 61 61 62 62 62 62 62 60 61 61 60 60 60 58 58 57 58
62 61 62 60 60 62 61 61 61 62 62 62 60 58 59 60 60 58 58 57 57 58
62 60 59 60 61 62 61 60 61 61 62 61 61 61 59 58 61 58 57 57 57 58
61 59 59 60 61 62 62 61 61 61 60 60 60 61 61 61 60 58 59 59 57 57
61 60 60 61 61 61 63 62 61 62 62 61 62 63 63 62 59 58 55 46 44 42
61 62 61 61 62 62 63 64 64 64 64 64 65 62 60 60 55 47 41 39 38 38
62 62 61 61 60 61 61 63 61 62 62 56 47 39 43 47 44 42 38 35 35 36
63 62 62 62 62 61 57 58 48 44 43 40 39 39 39 39 39 36 35 34 34 34
64 63 63 61 61 56 48 44 41 38 38 36 36 36 36 36 35 33 33 33 32 32
64 63 61 52 44 42 40 37 36 36 35 34 33 35 35 35 33 31 31 31 31 31
60 59 46 42 39 38 37 34 34 33 34 34 32 34 34 34 32 30 29 30 30 32
44 42 40 37 37 36 34 33 32 32 32 33 33 33 34 34 32 30 29 29 29 32

GFSNIL_sfc_temp_102.txt.gz
Temp
60 59 59 59 59 58 58 57 58 60 61 60 61 59 59 59 58 59 57 57 57 57
59 58 59 60 60 59 59 58 57 58 59 60 60 60 59 59 58 58 58 57 57 57
59 58 58 59 59 59 58 58 57 58 60 60 60 61 60 60 59 58 58 58 57 57
60 59 57 58 58 59 59 59 60 60 60 59 57 59 60 59 59 58 58 57 57 58
61 60 58 57 57 59 58 58 59 61 61 60 59 58 58 59 60 58 57 57 55 57
60 60 59 57 58 59 59 58 59 59 60 60 60 59 57 58 57 56 57 58 57 58
60 60 60 59 58 58 59 57 58 59 59 59 59 59 60 59 58 57 55 48 45 43
60 61 60 59 58 59 59 59 58 59 59 59 59 59 58 59 57 53 42 39 39 39
59 60 60 59 58 58 58 59 58 59 58 57 55 41 43 52 47 43 39 36 36 36
59 59 59 59 58 58 57 58 59 55 50 42 40 39 41 40 40 38 36 35 34 34
59 59 59 58 58 57 53 48 43 41 39 37 37 37 37 37 36 34 34 34 34 33
60 59 59 57 56 44 42 40 38 37 36 34 34 35 36 35 33 32 31 32 32 33
58 58 56 46 42 40 39 36 35 34 34 34 33 35 35 35 33 30 30 30 30 31
48 46 43 40 38 36 34 33 32 32 32 33 33 33 35 34 32 30 29 28 28 29

GFSNIL_sfc_temp_105.txt.gz
Temp
59 59 59 60 59 58 58 59 59 60 59 59 59 59 58 57 57 57 57 57 57 56
58 58 59 59 59 59 59 58 59 59 59 58 59 59 59 58 57 57 57 57 56 56
57 59 59 59 58 58 58 58 57 57 57 57 58 58 58 57 57 57 57 57 56 56
58 58 56 58 59 58 58 58 57 57 57 57 57 57 57 57 57 57 58 58 57 57
59 58 56 57 59 58 57 58 57 57 57 57 58 58 58 58 58 58 57 57 56 57
57 57 57 55 55 58 58 58 58 57 57 58 58 58 58 58 58 56 57 57 56 58
57 57 57 57 55 56 57 57 56 58 59 59 59 59 58 56 54 54 55 52 49 46
57 57 59 56 55 56 56 57 56 56 56 56 56 56 54 54 53 52 44 41 40 39
58 57 57 57 56 55 55 55 56 55 55 54 54 47 46 50 51 46 41 37 36 37
58 58 57 58 58 56 54 55 54 53 53 51 47 41 43 42 44 41 39 36 35 34
58 58 59 57 57 56 55 54 51 45 43 40 39 39 40 39 38 36 35 35 34 33
59 58 58 57 55 53 47 44 41 39 38 37 35 37 37 37 34 32 32 33 33 33
59 57 56 56 47 41 41 37 36 34 35 35 34 36 36 36 34 30 29 30 30 32
54 56 51 45 43 39 36 34 33 32 32 33 33 34 35 35 32 30 29 29 29 30

GFSNIL_sfc_temp_108.txt.gz
Temp
59 59 59 59 58 58 59 58 58 58 59 58 58 58 58 57 56 56 55 56 57 56
58 58 59 59 59 59 59 59 59 58 58 59 59 58 58 57 56 56 56 56 56 56
58 58 59 59 59 58 58 59 59 58 59 58 58 59 58 57 57 56 56 56 56 56
54 58 58 58 58 58 58 58 59 59 59 58 58 59 58 58 57 57 56 56 56 56
54 55 54 57 57 58 57 58 57 57 58 58 58 58 58 57 57 57 56 57 56 56
54 54 55 56 57 57 57 57 57 57 56 57 58 57 58 58 57 57 57 57 56 57
54 55 56 55 56 57 57 57 57 57 57 56 56 57 56 57 56 57 57 55 54 53
57 57 57 56 55 56 56 57 57 57 57 57 56 56 56 57 55 53 48 43 41 40
56 56 57 56 55 55 55 55 55 55 56 54 54 46 46 52 53 51 45 39 37 37
56 56 56 56 55 55 54 55 54 53 52 49 49 42 44 44 49 47 42 37 35 34
57 56 56 56 55 54 54 53 53 51 50 46 43 40 41 39 40 38 37 36 35 33
57 57 56 55 55 54 53 50 47 45 43 42 38 38 38 38 35 33 33 33 33 33
51 56 55 55 54 46 48 40 38 35 35 36 35 36 37 36 34 32 31 31 31 32
43 51 56 54 45 42 38 35 33 32 33 33 34 35 36 35 33 31 30 30 29 30

GFSNIL_sfc_temp_111.txt.gz
Temp
64 63 63 61 61 58 58 56 57 57 59 61 61 61 61 60 61 63 61 61 63 65
61 62 60 61 61 60 59 57 57 57 59 60 60 61 61 60 59 59 59 60 61 62
60 61 61 60 60 60 59 58 57 57 58 59 58 60 61 60 60 60 60 61 61 62
59 61 60 59 59 60 59 59 58 57 57 57 57 57 58 58 58 59 60 60 63 60
60 60 60 58 59 59 58 59 59 58 57 57 56 57 58 58 58 58 57 58 57 57
58 59 59 59 58 58 58 58 57 58 58 57 57 57 58 59 58 57 58 57 57 57
59 60 58 59 58 58 59 58 58 58 58 58 58 58 58 58 59 58 58 58 57 57
60 61 59 58 58 58 58 58 58 57 57 57 57 58 57 58 57 57 54 49 46 45
60 60 60 58 57 57 57 57 57 56 56 55 54 46 45 52 55 53 47 41 40 40
59 60 59 60 59 57 57 57 56 56 56 54 55 44 45 45 53 50 44 39 37 36
59 59 60 60 58 59 59 57 55 54 54 54 54 42 43 41 48 45 42 39 37 35
49 57 58 58 57 58 56 56 56 54 52 51 45 39 39 41 39 35 34 34 34 33
45 46 55 57 57 55 55 52 45 42 45 41 38 37 38 38 35 33 32 32 32 33
41 43 44 54 52 49 42 39 36 35 36 38 38 37 37 37 36 33 32 31 30 31

GFSNIL_sfc_temp_114.txt.gz
Temp
68 69 69 72 70 63 60 58 58 57 57 58 58 59 59 60 61 65 68 70 71 73
68 68 69 71 67 61 61 57 56 56 56 57 57 58 58 58 58 62 65 68 70 71
68 70 70 68 62 60 60 58 56 57 57 57 57 57 58 59 62 64 65 64 64 67
66 69 68 66 64 61 59 58 57 58 57 57 59 59 59 62 62 63 64 65 65 65
65 68 65 62 61 61 58 58 58 57 58 58 61 62 62 64 64 64 63 63 63 65
63 65 66 65 63 61 59 58 57 57 56 57 58 58 60 61 60 61 61 61 63 64
65 67 68 68 65 62 60 58 58 58 57 56 56 56 57 58 58 59 59 59 59 58
65 67 65 65 66 65 63 61 60 59 58 57 56 56 56 57 58 59 57 54 54 51
62 63 64 64 63 63 64 65 65 62 57 56 56 47 46 53 56 57 56 47 42 41
61 60 61 64 63 62 61 63 62 60 59 59 57 44 45 45 56 55 49 42 39 38
54 59 62 61 62 63 62 60 59 60 60 59 58 43 43 43 50 46 43 40 38 36
47 49 52 59 60 62 62 61 59 58 57 57 60 42 41 44 43 40 38 38 37 36
43 44 46 47 58 59 63 62 57 55 52 47 51 39 40 45 41 37 35 34 34 34
42 41 43 43 48 54 50 45 41 36 36 37 38 38 38 40 42 37 34 32 31 32

GFSNIL_sfc_temp_117.txt.gz
Temp
76 76 75 74 75 73 69 68 66 63 61 61 61 60 60 60 61 61 62 64 66 71
74 74 73 73 73 73 71 66 66 60 59 60 60 59 59 59 60 60 61 61 62 67
73 74 73 70 69 69 66 64 59 57 57 57 58 58 58 59 60 60 61 63 63 66
73 73 71 69 69 68 64 62 59 57 57 57 56 57 57 57 59 59 60 61 65 66
70 70 69 68 68 66 61 60 57 58 58 57 56 57 57 57 58 59 59 60 62 65
66 68 68 67 66 62 59 58 58 58 57 57 57 57 57 57 58 59 60 62 64 66
64 65 67 68 67 63 60 58 57 57 58 58 58 58 57 58 58 62 65 65 64 65
66 66 67 66 68 66 62 59 59 58 57 57 57 57 58 59 60 61 57 55 56 57
66 66 67 67 66 64 64 62 59 57 57 55 55 47 45 52 56 56 55 53 46 44
62 62 63 67 66 65 63 65 62 60 58 56 56 45 45 44 55 54 55 50 44 40
47 50 58 62 65 65 64 63 61 62 62 58 57 43 44 43 56 54 49 46 45 42
44 44 47 52 61 64 64 62 61 61 59 59 58 42 41 44 45 41 38 38 38 38
42 42 43 45 47 54 62 63 62 57 50 44 47 39 40 44 41 36 35 34 33 34
39 40 41 41 44 47 50 45 40 37 37 38 39 38 39 40 39 35 33 32 31 32

GFSNIL_sfc_temp_120.txt.gz
Temp
71 71 71 70 70 67 66 64 65 63 63 62 62 62 61 61 62 62 61 61 62 65
68 69 69 70 68 67 67 65 63 63 62 61 61 61 61 60 60 61 61 61 60 62
67 68 69 68 67 67 66 64 62 60 60 60 60 60 60 60 60 60 60 61 60 61
66 67 68 67 67 65 63 63 60 59 57 57 57 58 59 59 59 59 60 61 60 59
64 66 65 65 65 65 63 62 59 58 57 56 57 57 57 57 58 59 59 59 59 59
62 64 64 64 64 63 61 60 58 57 57 56 56 56 57 57 57 58 59 59 59 59
60 62 63 64 64 61 60 58 57 57 57 56 56 56 57 57 57 58 58 59 60 59
60 62 64 64 63 62 59 58 58 57 57 57 56 56 56 56 56 56 56 55 57 57
52 63 64 62 62 61 60 58 57 56 56 55 55 45 46 52 55 55 54 51 48 46
47 50 54 62 61 60 60 59 57 56 56 55 54 44 44 45 53 53 53 49 45 43
45 45 48 51 59 60 59 59 57 56 56 55 55 43 44 42 52 51 50 48 47 44
42 42 43 45 47 51 59 58 57 57 56 55 54 42 42 44 50 44 38 38 39 39
39 40 40 41 42 46 50 57 56 46 43 42 46 39 40 45 41 35 34 33 33 34
38 38 38 38 41 42 45 43 39 36 35 36 37 39 39 40 39 35 32 32 31 32

GFSNIL_sfc_temp_123.txt.gz
Temp
65 65 67 68 65 64 63 64 64 63 62 62 62 62 63 62 62 62 61 60 61 62
65 66 66 68 67 65 64 63 64 63 62 62 62 62 62 61 61 61 61 60 61 61
66 67 66 65 64 64 63 62 60 61 61 61 61 61 61 61 61 61 61 61 61 61
64 65 65 64 64 63 62 61 59 59 58 59 59 60 60 60 60 59 60 60 60 60
63 63 63 63 63 62 61 60 59 58 57 57 57 58 58 59 59 59 59 60 60 60
60 61 61 62 62 61 60 58 57 57 56 56 56 56 57 57 58 58 59 59 59 59
58 60 61 61 61 60 59 57 56 56 56 56 56 56 56 57 57 58 58 59 60 60
53 55 60 61 60 59 58 56 57 56 56 56 55 55 55 56 56 56 56 56 58 57
50 52 53 59 59 59 58 55 55 55 55 55 54 48 46 51 54 55 54 52 50 54
47 48 49 52 58 59 57 57 55 55 55 54 54 44 45 45 53 52 51 49 47 43
43 45 46 47 48 51 57 57 55 55 55 54 53 42 43 42 52 50 48 47 46 43
40 41 42 43 43 45 48 55 56 55 54 54 53 42 41 45 48 41 37 38 41 40
38 39 39 39 41 43 45 48 50 44 42 40 46 39 41 45 41 36 34 34 34 35
36 36 37 38 39 39 41 41 37 36 35 35 36 38 39 40 40 36 33 32 32 32

GFSNIL_sfc_temp_126.txt.gz
Temp
65 66 65 65 64 63 63 63 64 63 63 63 63 62 63 62 62 62 61 60 60 61
62 63 63 63 63 63 64 63 63 63 62 61 62 62 62 62 61 61 61 61 60 61
62 62 64 63 63 64 64 64 62 62 62 60 61 61 61 61 61 61 61 61 60 60
63 62 64 63 64 64 63 62 62 62 61 61 60 60 60 61 61 60 60 61 60 60
62 63 62 62 62 62 61 61 60 59 59 58 58 59 59 59 59 59 59 60 60 60
59 60 60 60 61 61 60 59 58 58 57 57 56 56 57 57 58 58 59 59 59 60
53 57 59 60 60 59 59 58 57 57 55 56 56 56 56 57 56 57 58 58 59 60
50 54 57 59 59 59 58 58 57 56 55 55 55 55 55 55 55 56 56 57 58 58
47 50 51 52 57 58 57 56 55 54 55 54 54 47 45 50 55 55 54 53 53 54
43 45 47 49 51 57 56 56 55 55 55 54 54 44 44 43 53 53 52 49 46 46
40 41 43 45 46 48 51 55 55 54 54 54 52 43 43 42 52 50 48 47 46 41
38 39 39 39 41 44 45 49 54 55 54 53 52 42 41 43 47 42 38 39 41 40
36 37 36 37 38 40 43 46 49 43 42 39 46 38 40 44 41 37 34 34 34 35
34 35 34 36 37 38 39 38 35 34 34 35 35 38 39 41 40 37 33 33 32 33

GFSNIL_sfc_temp_129.txt.gz
Temp
65 65 64 64 65 64 64 64 64 64 64 64 63 63 63 63 62 62 61 61 61 61
64 64 64 64 64 64 65 64 63 64 63 63 63 63 62 62 62 61 61 61 60 61
61 62 63 63 62 62 62 62 63 62 62 62 62 62 62 61 61 61 61 61 60 60
61 62 61 63 62 62 62 63 62 62 61 61 60 60 61 61 61 60 61 61 60 60
61 60 59 60 61 62 61 62 62 61 60 60 59 59 59 59 60 60 60 60 59 59
55 59 60 59 59 60 60 60 60 60 59 59 58 58 58 59 59 59 59 60 59 60
50 53 58 59 59 59 59 59 58 58 58 57 57 57 57 56 56 56 57 57 58 59
48 50 52 54 58 59 58 58 58 57 56 56 56 54 55 55 55 55 55 55 56 57
45 47 47 49 51 57 57 57 55 55 55 53 53 46 45 51 54 54 54 54 54 55
42 43 44 46 48 48 51 56 55 55 54 54 52 44 44 43 53 53 53 52 50 47
39 40 41 42 43 44 46 49 54 54 54 53 51 42 43 41 51 51 48 48 47 43
36 37 38 38 39 41 42 45 48 53 53 53 52 41 41 42 49 44 40 39 40 40
35 35 34 34 36 39 40 42 41 39 38 37 43 38 39 44 44 38 34 34 34 35
33 34 34 31 34 36 37 36 35 34 33 33 33 36 38 40 42 38 34 33 32 33

GFSNIL_sfc_temp_132.txt.gz
Temp
68 66 67 67 68 67 66 66 66 65 65 65 65 64 63 63 62 62 61 61 60 61
65 65 65 66 66 68 68 66 65 65 64 64 64 63 63 62 62 61 61 61 61 61
65 64 64 64 64 65 65 64 63 64 64 63 63 63 62 62 62 61 61 61 60 60
61 62 61 61 61 62 62 62 62 63 62 62 61 62 61 61 61 61 61 61 60 60
60 61 61 60 60 60 60 61 61 61 61 61 61 61 61 60 60 60 60 60 60 60
52 54 58 59 60 60 60 60 60 61 60 60 59 59 59 60 59 60 60 60 60 60
48 50 52 57 58 59 60 60 60 60 60 59 59 59 59 58 58 58 58 58 58 58
45 47 48 50 53 58 58 58 59 58 57 57 57 57 56 56 56 56 55 55 56 56
43 44 44 46 48 50 55 56 57 56 56 55 54 47 44 51 55 54 53 53 53 53
40 41 41 43 45 45 47 51 55 55 55 53 53 43 43 43 53 53 53 52 51 49
37 38 39 40 40 42 44 46 48 54 54 53 52 42 42 41 52 51 51 49 48 47
35 36 36 35 36 39 40 43 43 43 45 47 50 38 39 42 49 47 42 40 39 42
34 34 33 31 34 37 39 39 39 36 36 35 36 37 37 41 45 40 35 34 34 35
32 32 32 32 33 35 36 36 35 33 33 33 33 34 37 38 43 39 34 33 32 33

GFSNIL_sfc_temp_135.txt.gz
Temp
74 72 73 72 73 70 68 69 68 66 67 68 67 67 65 64 64 67 66 66 65 66
73 71 71 72 73 70 70 68 68 66 66 67 67 68 66 64 63 63 63 63 63 63
72 69 69 70 70 71 71 68 67 66 66 66 66 67 64 64 64 63 63 63 62 62
67 67 68 68 69 69 68 66 66 65 65 64 64 64 63 63 63 62 62 63 62 62
58 61 63 63 63 64 63 63 63 63 64 64 64 64 63 62 62 61 61 61 61 61
50 52 54 61 64 63 63 61 61 61 61 62 63 63 62 62 61 61 62 62 61 63
45 46 49 52 56 61 61 61 61 61 61 61 62 62 62 61 61 62 63 64 63 63
43 45 47 48 50 54 59 60 60 60 60 61 61 61 61 62 62 62 60 59 60 60
41 43 44 45 47 48 51 56 58 58 58 58 57 47 47 54 60 60 58 58 57 58
38 39 40 42 44 44 46 51 52 56 56 57 58 46 46 46 58 61 61 57 55 53
36 37 37 39 39 41 43 45 47 45 48 55 47 42 41 41 59 58 55 54 53 52
35 36 37 35 36 38 40 41 41 40 40 41 41 36 37 42 51 51 48 45 43 44
35 35 34 35 36 38 40 39 38 36 35 35 36 36 37 39 48 45 38 36 35 35
34 34 34 35 36 36 38 38 36 35 34 33 33 34 36 37 43 40 36 35 34 34

GFSNIL_sfc_temp_141.txt.gz
Temp
76 77 80 75 73 66 65 70 72 70 72 76 76 75 75 74 75 75 75 74 75 77
76 76 79 77 77 70 70 69 71 70 69 70 73 73 73 72 71 73 73 74 74 75
77 79 79 76 69 70 73 73 71 69 68 68 69 71 70 69 70 70 73 73 72 73
59 61 75 74 74 67 72 74 72 71 68 66 67 68 68 67 68 68 71 73 72 72
50 54 56 58 67 74 74 74 72 72 69 66 66 66 66 66 67 68 68 68 69 71
46 47 51 53 55 60 71 75 74 73 69 66 66 66 66 66 67 69 68 68 66 68
44 45 48 50 52 53 57 63 64 65 65 64 64 64 64 65 65 67 68 67 66 65
42 46 46 47 49 52 53 56 61 66 62 62 63 64 63 64 64 64 65 63 64 64
40 41 43 44 45 47 49 52 52 53 65 65 51 41 47 58 63 63 63 60 61 62
39 39 40 43 42 43 43 46 45 46 47 42 41 38 40 42 65 64 63 62 59 57
34 38 39 38 38 41 42 41 41 40 43 42 39 37 37 39 54 60 58 58 58 57
38 37 35 35 36 39 38 38 37 37 36 37 38 35 36 41 53 55 52 45 43 53
39 39 37 37 36 37 38 37 37 35 34 34 34 34 35 37 46 45 40 38 36 35
39 38 37 37 37 37 37 35 35 34 34 34 34 34 34 35 40 39 38 35 34 34

GFSNIL_sfc_temp_144.txt.gz
Temp
52 61 68 68 69 63 69 68 68 66 71 73 71 72 71 70 69 70 69 68 68 69
50 53 67 67 64 65 67 64 65 63 63 68 71 71 71 69 68 70 70 69 68 69
48 51 58 66 63 63 64 63 62 62 58 60 69 69 70 69 69 68 69 69 68 68
45 48 53 57 59 60 61 63 61 60 59 64 67 68 68 69 68 67 67 68 68 68
43 47 48 50 53 57 59 60 59 65 67 67 67 67 66 66 67 66 66 67 67 68
41 43 45 47 49 53 57 58 60 61 66 66 65 65 66 66 66 66 66 67 67 67
40 41 42 44 47 49 52 54 59 60 61 65 64 65 65 65 65 66 66 67 68 67
39 41 41 42 44 46 48 49 52 59 58 62 58 52 60 64 64 64 64 66 64 65
38 40 39 40 42 43 43 45 46 48 46 45 45 41 40 48 63 63 63 61 62 62
38 37 38 39 39 40 39 40 40 41 44 42 40 39 42 42 57 60 60 61 61 59
37 37 36 37 37 39 39 38 37 37 38 39 38 36 39 40 50 59 59 59 59 56
37 36 35 34 35 36 37 36 35 35 35 34 35 35 36 39 48 50 43 43 43 54
37 36 34 34 34 36 36 36 36 34 33 34 33 35 35 38 45 40 38 36 35 35
38 36 34 33 33 33 35 34 33 33 33 33 33 33 34 35 37 36 34 33 33 33

GFSNIL_sfc_temp_147.txt.gz
Temp
45 46 47 50 51 55 58 59 63 64 65 59 61 61 68 68 68 69 68 66 67 67
45 45 46 49 53 58 60 57 59 62 62 60 62 61 66 67 67 68 68 65 66 67
43 45 47 49 50 53 58 58 58 59 60 61 62 61 58 63 67 67 67 66 65 66
41 43 45 47 48 50 56 56 55 54 58 58 58 61 58 55 64 65 67 67 65 65
41 41 42 43 46 49 50 58 56 55 56 58 58 60 57 56 59 65 65 65 65 65
39 39 39 42 44 47 48 51 54 58 58 58 56 57 58 58 62 66 65 65 66 65
38 39 39 40 42 43 45 45 48 51 58 59 60 60 61 63 64 64 66 66 66 66
38 39 39 39 40 41 42 43 44 49 54 50 47 43 45 49 64 63 63 62 64 65
38 38 37 38 39 40 39 40 42 41 42 41 41 37 38 42 59 63 62 61 63 64
36 36 35 36 37 37 38 38 38 38 39 38 37 37 38 38 50 61 62 63 62 62
35 35 34 34 34 36 37 36 35 35 35 36 36 36 36 37 48 57 59 59 59 58
35 34 32 31 31 33 35 35 35 34 33 33 33 35 36 38 50 45 42 41 41 54
35 34 32 31 30 31 34 34 34 33 33 33 32 34 35 37 43 41 38 36 35 35
35 34 33 31 31 31 31 32 31 31 32 32 32 32 34 35 37 35 34 33 33 33

GFSNIL_sfc_temp_150.txt.gz
Temp
43 43 44 44 45 46 47 50 55 55 56 59 62 62 62 58 58 56 65 65 65 67
43 42 42 42 44 46 49 51 53 56 56 60 61 59 59 57 56 58 65 65 65 66
41 43 42 42 42 44 46 49 52 55 57 58 58 59 59 58 58 60 62 65 64 65
41 41 41 40 41 43 45 48 51 54 56 58 56 57 57 58 59 58 55 60 64 64
40 40 40 39 40 42 43 46 47 50 53 54 57 58 58 57 60 58 56 55 56 64
38 38 38 38 39 41 42 43 45 47 48 54 55 57 59 60 59 60 58 56 56 61
37 37 37 38 38 39 41 41 42 44 49 47 56 56 57 59 58 58 57 57 58 58
37 37 38 37 37 38 39 39 40 40 42 42 40 40 42 55 56 56 55 57 57 57
37 36 36 35 35 36 37 38 37 37 37 38 38 35 37 39 51 58 57 58 58 60
36 34 34 35 34 33 34 36 36 35 35 35 36 34 36 38 47 56 60 60 61 60
35 33 33 33 31 32 32 33 34 34 33 33 35 34 35 37 50 53 56 58 59 60
34 32 31 30 30 30 31 31 32 33 32 32 33 34 35 39 45 42 40 39 40 48
34 32 30 30 29 30 31 31 32 31 32 33 32 34 35 36 38 35 36 35 35 35
33 33 31 30 30 31 30 30 30 31 32 32 33 33 35 34 33 33 33 32 33 33